Flag for France Weather past 2 weeks in Amiens, France

Now
43 °F

Clear.


Feels Like: 43 °F
Forecast: 51 / 65 °F
Wind: No wind

Location: Beauvais Airport

Current Time: Aug 21, 2014 at 5:19:13 AM

Latest Report: Aug 21, 2014 at 4:30 AM


Visibility: N/A

Pressure: 30.07 "Hg

Humidity: 93%

Dew point: 41 °F

Location of AmiensLocation

Historic Weather in Amiens — Graph

°F

Amiens temperature yesterday

Maximum temperature yesterday: 64 °F (at 1:30 PM)
Minimum temperature yesterday: 41 °F (at 6:00 AM)
Average temperature yesterday: 53 °F

Past Weeks' High & Low Weather Summary

 TemperatureHumidityPressure
High77 °F (Aug 7, 6:00 PM)100% (Aug 7, 1:30 AM)30.21 "Hg (Aug 7, 1:30 AM)
Low41 °F (Aug 20, 6:00 AM)40% (Aug 18, 4:30 PM)29.53 "Hg (Aug 10, 3:00 PM)
Average61 °F81%29.91 "Hg
* Reported Aug 6 4:00 AM — Aug 21 4:00 AM, Amiens, Weather by CustomWeather, © 2014

Note: Actual official high and low records may vary slightly from our data, if they occured in-between our weather recording intervals... More about our weather records

Advertising

Amiens weather history for previous 24 hours

 ConditionsComfort  
Time TempWeatherWind HumidityBarometerVisibility
4:00 AM
Aug 21
43 °FClear.1 mph93%30.09 "HgN/A
3:30 AM43 °FClear.2 mph93%30.09 "HgN/A
3:00 AM45 °FClear.1 mph87%30.09 "HgN/A
2:30 AM43 °FClear.No wind93%30.09 "HgN/A
2:00 AM43 °FClear.No wind93%30.09 "HgN/A
1:30 AM45 °FClear.No wind93%30.09 "HgN/A
1:00 AM45 °FClear.No wind93%30.09 "HgN/A
12:30 AM46 °FClear.No wind87%30.09 "HgN/A
12:00 AM46 °FClear.1 mph87%30.09 "HgN/A
11:30 PM
Aug 20
48 °FClear.2 mph87%30.09 "HgN/A
11:00 PM50 °FClear.3 mph76%30.09 "HgN/A
10:30 PM52 °FClear.3 mph72%30.09 "HgN/A
10:00 PM52 °FClear.5 mph72%30.09 "HgN/A
9:30 PM52 °FClear.7 mph72%30.07 "HgN/A
9:00 PM54 °FClear.7 mph67%30.07 "HgN/A
8:30 PM57 °FClear.8 mph59%30.07 "HgN/A
8:00 PM61 °FPassing clouds.8 mph55%30.04 "HgN/A
7:30 PM61 °FScattered clouds.7 mph59%30.04 "HgN/A
7:00 PM61 °FPartly sunny.9 mph63%30.04 "HgN/A
6:30 PM61 °FPartly sunny.8 mph59%30.04 "HgN/A
6:00 PM63 °FPartly sunny.9 mph56%30.04 "HgN/A
5:30 PM63 °FClear.9 mph56%30.04 "HgN/A
5:00 PM61 °FClear.8 mph68%30.04 "HgN/A
4:30 PM59 °FClear.13 mph68%30.04 "HgN/A
4:00 PM61 °FMore clouds than sun.14 mph68%30.04 "HgN/A
3:30 PM59 °FBroken clouds.9 mph72%30.04 "HgN/A
3:00 PM61 °FPartly sunny.18 mph63%30.04 "HgN/A
2:30 PM64 °FPartly sunny.12 mph52%30.04 "HgN/A
2:00 PM64 °FBroken clouds.6 mph56%30.04 "HgN/A
1:30 PM64 °FBroken clouds.12 mph49%30.04 "HgN/A
1:00 PM63 °FBroken clouds.9 mph64%30.04 "HgN/A
12:30 PM63 °FPartly sunny.9 mph56%30.04 "HgN/A
12:00 PM63 °FScattered clouds.8 mph59%30.04 "HgN/A
11:30 AM61 °FClear.6 mph68%30.04 "HgN/A
11:00 AM61 °FClear.7 mph68%30.04 "HgN/A
10:30 AM57 °FClear.8 mph77%30.04 "HgN/A
10:00 AM54 °FPassing clouds.6 mph94%30.04 "HgN/A
9:30 AM50 °FClear.1 mph100%30.04 "HgN/A
9:00 AM48 °FClear.1 mph100%30.04 "HgN/A
8:30 AM46 °FClear.3 mph100%30.04 "HgN/A
8:00 AM45 °FClear.2 mph100%30.04 "HgN/A
7:30 AM41 °FPassing clouds.No wind100%30.04 "HgN/A
7:00 AM41 °FLight fog.No wind100%30.04 "Hg5 mi
6:30 AM41 °FFog.No wind100%30.04 "HgN/A
6:00 AM41 °FFog.No wind100%30.04 "Hg1 mi
5:30 AM43 °FFog.No wind93%30.04 "Hg0 mi
5:00 AM43 °FClear.No wind93%30.04 "HgN/A
Weather by CustomWeather, © 2014

See weather overviewHow to use our weather pages